Wind_Speed
45 45 46 46 46 47 47 48 48 49 50 50 51 52 53 54 55 56 56 57 57 58 59 59 59 59 60 60 60 61 61 61 61 61 61 62 62 62 62 62 63 63
45 46 46 47 47 48 48 49 50 51 52 53 53 54 55 56 57 57 58 58 58 59 59 59 59 60 60 61 61 62 62 62 62 62 62 62 62 62 62 62 63 64
46 46 47 48 48 49 50 51 51 52 53 54 54 55 56 56 57 57 58 58 59 59 59 60 60 61 62 63 63 64 63 63 63 63 63 63 62 62 62 63 63 64
47 47 48 49 49 50 51 51 52 53 53 54 55 55 56 57 57 58 59 59 60 60 61 62 62 63 64 64 65 65 64 64 63 63 63 63 62 62 62 63 63 63
47 48 48 49 49 50 51 52 53 54 55 55 56 56 57 58 58 59 60 60 61 62 63 63 64 64 65 65 65 65 64 64 64 64 64 63 62 62 62 62 62 62
48 48 49 50 51 52 53 53 55 55 56 57 57 58 58 59 59 60 61 61 62 63 64 64 64 64 65 65 65 64 64 64 64 64 64 63 63 63 62 62 61 61
49 50 51 52 53 53 54 55 56 56 57 58 59 59 60 60 61 62 62 63 63 64 64 64 64 65 65 64 64 64 64 64 64 64 64 63 63 63 62 61 61 61
51 52 53 54 54 55 55 56 57 58 59 60 61 62 63 63 64 64 65 65 65 65 65 65 65 64 64 64 64 64 64 64 64 65 64 64 63 62 61 60 61 61
53 54 55 56 56 57 57 58 59 60 61 63 64 65 65 66 66 67 67 67 67 66 65 65 64 64 63 64 64 64 64 65 65 65 64 63 61 60 60 60 61 62
57 57 58 59 59 60 60 61 62 63 64 65 66 67 67 68 68 68 68 68 67 66 65 64 64 63 64 64 65 65 65 65 64 63 62 61 60 60 61 62 63 63
59 59 60 61 62 63 63 64 64 65 65 66 66 67 67 67 67 67 66 66 66 65 65 65 65 66 66 66 66 66 65 64 63 62 62 61 61 62 62 63 64 64
61 61 62 63 64 64 64 65 65 65 65 65 65 65 65 65 65 65 65 66 66 66 67 67 67 67 67 67 66 65 65 64 63 63 62 62 63 63 64 64 65 65
63 63 64 64 64 64 64 64 64 63 63 63 63 63 63 63 64 65 65 65 66 66 66 66 66 66 65 65 65 64 64 64 63 64 64 64 64 64 65 66 66 67
64 64 64 64 63 63 63 62 62 62 62 62 62 62 62 62 63 63 63 63 63 63 63 63 64 64 64 64 64 64 64 64 64 64 65 65 65 65 66 68 69 70
63 63 63 62 62 62 61 61 61 61 60 60 60 60 61 61 61 61 61 61 61 62 62 63 64 64 65 65 65 66 66 66 66 66 66 67 67 68 69 71 73 74
63 62 62 61 61 60 60 59 59 59 59 59 59 59 60 60 60 61 61 62 63 63 64 65 65 66 66 66 67 67 67 67 67 68 69 70 71 72 73 75 76 77
62 62 62 61 61 60 59 59 59 60 60 61 61 62 62 63 63 64 64 65 65 65 65 65 66 66 67 68 69 70 71 71 71 72 73 74 75 76 76 77 78 79
62 62 61 61 61 61 61 62 63 64 64 64 65 65 65 65 65 65 65 65 65 65 66 66 68 69 70 71 72 73 75 75 75 75 76 76 77 78 78 79 80 80
62 61 61 61 62 63 64 65 66 66 66 66 66 65 65 65 65 65 65 66 67 68 69 70 72 73 74 75 75 76 77 78 78 79 79 80 80 81 82 82 83 84
61 61 62 63 65 66 67 68 68 68 67 67 66 66 67 67 68 68 69 71 72 73 74 74 76 77 78 79 79 80 81 81 82 82 82 82 83 84 84 85 85 86
62 63 66 67 69 69 70 70 69 69 69 69 69 70 70 71 72 73 74 75 76 77 78 78 79 81 82 82 83 83 83 84 84 84 84 84 85 85 86 86 86 87
66 68 70 71 72 71 71 71 72 72 72 73 73 73 74 75 76 76 77 79 80 81 81 81 82 84 85 85 86 86 86 86 87 87 87 87 86 87 87 87 87 87
71 73 74 74 74 74 74 74 75 75 76 77 77 77 78 78 79 80 81 82 83 84 84 84 84 85 86 87 88 88 89 88 89 89 88 88 88 88 88 88 88 88
76 77 77 77 77 77 78 78 79 79 80 81 81 81 82 83 83 84 84 85 85 86 87 87 87 87 88 89 89 91 91 91 91 91 91 91 90 90 90 89 89 88
80 80 80 80 81 81 81 82 83 84 85 85 86 86 86 87 88 88 88 88 89 89 90 90 90 90 91 92 92 93 94 95 95 95 95 95 94 93 93 92 91 90
83 83 83 84 84 85 85 86 87 88 89 90 90 91 91 92 92 93 93 93 93 94 94 95 95 95 95 96 96 96 97 98 99 99 99 99 99 98 96 95 94 93
Wind_Direction
275 276 277 278 280 281 282 283 284 285 287 288 289 289 290 291 291 292 292 293 293 293 294 294 294 294 295 295 295 296 296 296 296 296 296 296 296 296 296 296 296 296
276 277 278 280 281 282 283 285 286 287 288 289 289 290 291 291 292 292 293 293 293 293 294 294 294 294 294 294 295 295 296 296 295 295 295 296 296 296 296 295 295 296
276 278 279 281 282 284 285 286 287 287 288 289 289 290 290 291 291 292 292 293 293 293 293 293 293 294 294 294 295 295 295 295 295 295 295 295 295 295 295 295 295 295
278 279 281 282 283 284 285 286 287 287 288 289 289 290 290 290 291 291 291 291 292 292 292 293 293 294 294 294 295 295 295 295 294 294 294 295 294 294 294 294 294 295
280 281 282 283 284 284 285 286 287 288 288 288 288 289 289 289 289 290 290 291 291 292 292 293 293 293 294 294 294 294 294 294 294 294 294 295 294 294 294 295 295 296
281 282 283 283 284 285 286 287 287 287 288 288 288 288 289 289 289 290 291 291 292 292 292 293 293 293 293 293 293 293 293 294 294 294 295 295 295 295 295 295 295 296
281 282 282 283 284 285 286 287 287 288 288 289 290 290 290 290 291 291 291 291 291 292 292 292 292 292 292 293 293 293 293 294 294 294 295 295 295 295 295 295 295 296
281 283 284 285 286 287 287 288 288 289 289 290 290 290 290 291 291 291 291 291 291 292 292 292 292 292 292 292 293 293 293 293 293 294 294 294 294 294 294 294 295 296
284 285 286 287 287 287 288 288 289 289 289 289 289 290 290 290 291 291 291 291 292 292 292 292 292 292 292 292 292 292 293 293 293 293 293 292 292 292 292 293 294 295
286 287 287 288 288 288 288 289 289 288 288 289 289 289 289 290 290 290 291 291 292 292 292 292 292 292 292 292 292 292 292 292 292 292 292 291 291 291 292 293 294 295
287 288 288 288 288 288 288 288 288 288 288 288 288 288 289 289 290 290 291 291 291 292 292 292 292 292 292 292 292 292 292 291 291 291 291 291 291 291 292 293 294 295
286 287 287 287 288 288 288 288 288 288 288 288 288 289 289 290 290 290 291 291 291 291 291 291 292 292 292 292 292 291 291 291 291 291 290 291 291 292 292 293 294 294
286 287 288 288 288 289 289 289 289 289 289 289 289 289 289 289 289 289 289 289 290 290 290 291 291 291 291 291 291 291 291 290 290 290 290 290 290 291 291 292 292 293
288 289 289 289 289 289 289 289 289 289 289 288 288 288 288 288 288 288 288 288 288 289 289 289 289 289 289 289 289 288 288 288 288 288 288 289 289 290 291 292 292 293
290 290 290 289 289 289 289 289 289 289 289 289 289 289 289 289 288 288 288 288 288 288 288 288 288 288 288 287 287 287 287 287 288 288 289 290 291 291 292 293 293 293
290 290 289 289 289 289 289 289 289 289 290 290 290 290 290 290 289 289 289 288 288 288 289 289 289 289 289 289 288 288 288 289 289 290 291 291 292 292 292 292 292 292
291 291 291 291 291 290 290 290 290 291 291 291 291 291 291 290 290 290 290 290 290 290 291 291 291 291 291 291 291 291 291 291 291 291 291 292 292 292 292 292 292 292
291 291 291 291 291 291 292 292 292 292 292 292 292 292 292 292 291 291 291 291 292 292 292 292 292 292 291 291 291 291 291 291 292 292 292 292 292 292 293 293 293 293
290 290 290 290 291 291 292 292 293 293 293 293 292 292 292 291 291 291 291 291 291 291 292 292 292 292 292 292 292 292 292 293 294 294 294 295 295 295 295 296 296 296
288 288 289 290 291 291 292 292 292 292 291 291 291 290 290 290 290 290 291 292 292 292 293 293 294 294 294 294 294 294 294 295 295 295 296 296 296 296 296 296 296 296
286 287 289 290 291 291 291 291 290 290 290 290 290 290 290 290 290 291 292 292 293 293 293 294 295 295 295 295 295 295 295 295 295 295 295 296 296 296 295 295 296 296
286 288 290 291 291 291 291 290 290 290 290 290 290 291 291 291 291 292 292 293 293 294 294 294 295 295 294 294 294 294 294 294 295 295 295 295 295 295 295 295 296 296
287 289 290 291 291 291 291 291 291 291 291 291 292 292 292 293 293 293 294 294 294 294 294 295 295 294 294 293 293 293 293 294 294 294 294 295 295 295 295 296 296 296
289 290 291 291 292 292 292 292 292 293 293 293 293 293 294 294 294 294 294 295 295 294 294 294 294 293 293 293 293 293 293 294 294 294 295 295 296 296 296 297 297 297
291 291 292 292 292 293 293 293 293 293 294 294 294 294 294 294 294 294 295 295 295 295 295 294 294 294 294 294 294 294 295 295 296 296 297 297 298 298 298 299 299 299
292 293 293 293 293 293 294 294 294 294 294 294 295 295 295 295 295 295 295 295 295 295 295 295 295 295 295 295 295 296 296 296 297 298 298 298 299 299 299 300 300 299
Height
5840 5839 5838 5837 5836 5835 5834 5832 5831 5830 5828 5827 5825 5824 5822 5820 5818 5816 5814 5812 5811 5808 5806 5804 5802 5800 5798 5796 5793 5791 5789 5786 5784 5782 5779 5777 5775 5772 5769 5766 5763 5760
5835 5834 5833 5832 5831 5830 5829 5827 5826 5824 5823 5821 5820 5818 5816 5814 5812 5810 5808 5806 5804 5802 5800 5798 5795 5793 5791 5789 5787 5785 5782 5780 5777 5774 5772 5770 5768 5765 5763 5760 5756 5753
5830 5829 5828 5827 5826 5824 5823 5822 5820 5819 5817 5816 5814 5812 5810 5808 5806 5804 5802 5800 5798 5795 5793 5791 5789 5786 5784 5782 5780 5778 5775 5773 5770 5767 5765 5763 5760 5758 5755 5752 5749 5746
5825 5824 5823 5822 5820 5819 5818 5816 5815 5813 5811 5810 5808 5806 5804 5802 5800 5798 5796 5793 5791 5789 5786 5784 5782 5780 5777 5775 5773 5771 5768 5766 5763 5760 5758 5756 5753 5750 5748 5745 5742 5740
5820 5818 5817 5816 5815 5813 5812 5810 5809 5807 5805 5804 5802 5800 5798 5796 5794 5792 5789 5787 5785 5782 5779 5777 5774 5772 5770 5767 5765 5763 5761 5758 5756 5753 5751 5749 5746 5743 5741 5738 5735 5733
5814 5813 5812 5810 5809 5808 5806 5805 5803 5801 5799 5797 5796 5794 5792 5790 5788 5785 5783 5780 5777 5775 5772 5769 5767 5764 5762 5760 5758 5755 5753 5751 5748 5745 5743 5742 5739 5736 5733 5730 5728 5726
5809 5808 5806 5805 5803 5802 5800 5799 5797 5795 5792 5790 5788 5786 5784 5782 5780 5778 5776 5773 5770 5768 5765 5762 5759 5757 5754 5752 5750 5748 5745 5743 5740 5738 5736 5734 5731 5729 5726 5723 5721 5719
5803 5802 5801 5799 5797 5796 5794 5792 5790 5788 5786 5783 5781 5779 5777 5775 5773 5771 5768 5766 5763 5760 5758 5755 5752 5750 5747 5745 5743 5740 5738 5735 5733 5731 5729 5727 5724 5722 5719 5716 5714 5712
5797 5796 5794 5792 5790 5789 5787 5785 5783 5781 5779 5777 5774 5772 5770 5768 5765 5763 5760 5758 5755 5752 5750 5747 5745 5742 5740 5737 5735 5733 5731 5728 5726 5723 5721 5719 5717 5715 5713 5709 5707 5705
5790 5788 5786 5784 5783 5781 5779 5777 5776 5774 5772 5769 5767 5764 5762 5759 5757 5755 5752 5750 5747 5744 5742 5740 5737 5735 5732 5730 5728 5725 5724 5721 5718 5716 5714 5712 5710 5708 5705 5702 5699 5697
5782 5781 5779 5777 5775 5773 5772 5770 5768 5766 5764 5762 5759 5757 5754 5751 5749 5747 5744 5741 5739 5737 5734 5732 5729 5727 5725 5722 5720 5718 5716 5713 5711 5709 5706 5704 5702 5700 5697 5694 5691 5689
5776 5774 5772 5770 5768 5766 5764 5762 5760 5758 5756 5754 5751 5749 5746 5744 5741 5739 5737 5734 5731 5729 5727 5724 5721 5719 5717 5714 5712 5710 5707 5705 5703 5701 5699 5696 5694 5692 5689 5686 5683 5681
5768 5767 5764 5762 5760 5758 5756 5754 5752 5750 5748 5746 5744 5741 5739 5737 5734 5732 5729 5727 5724 5722 5719 5717 5714 5711 5709 5706 5704 5702 5699 5697 5695 5693 5691 5689 5686 5684 5681 5679 5676 5673
5760 5758 5756 5754 5752 5750 5747 5746 5743 5741 5740 5738 5736 5734 5732 5730 5727 5725 5722 5720 5717 5715 5712 5709 5707 5704 5701 5699 5696 5694 5692 5690 5688 5686 5683 5682 5679 5677 5674 5671 5668 5665
5751 5749 5747 5745 5743 5741 5739 5737 5735 5733 5731 5729 5727 5726 5724 5722 5719 5717 5715 5713 5710 5708 5705 5702 5699 5696 5694 5691 5689 5686 5684 5682 5680 5678 5675 5673 5671 5669 5666 5662 5659 5656
5742 5740 5738 5736 5735 5733 5731 5729 5727 5725 5723 5721 5719 5718 5716 5714 5712 5709 5707 5705 5703 5700 5697 5694 5690 5687 5685 5682 5679 5677 5675 5674 5672 5670 5667 5664 5662 5660 5657 5654 5649 5646
5732 5730 5729 5727 5725 5723 5722 5720 5719 5717 5715 5714 5712 5709 5707 5705 5703 5701 5698 5696 5693 5691 5688 5685 5682 5678 5675 5673 5670 5667 5664 5663 5662 5660 5657 5654 5652 5649 5647 5644 5640 5637
5723 5722 5720 5718 5716 5715 5713 5712 5710 5708 5707 5705 5703 5701 5699 5696 5694 5692 5689 5686 5684 5682 5680 5677 5673 5670 5666 5664 5661 5658 5654 5652 5651 5649 5647 5644 5641 5639 5636 5633 5630 5626
5715 5714 5712 5711 5709 5708 5706 5704 5702 5700 5698 5697 5695 5692 5690 5688 5686 5683 5681 5678 5676 5674 5671 5669 5665 5661 5657 5654 5652 5649 5645 5642 5640 5638 5636 5633 5630 5626 5623 5620 5616 5613
5708 5707 5705 5703 5702 5700 5698 5696 5694 5692 5690 5688 5687 5684 5682 5680 5677 5675 5673 5669 5667 5664 5662 5659 5655 5650 5647 5643 5640 5638 5634 5631 5629 5626 5624 5621 5618 5614 5610 5607 5604 5600
5701 5699 5697 5696 5694 5692 5690 5688 5685 5683 5681 5679 5678 5676 5673 5671 5668 5666 5664 5660 5657 5654 5652 5650 5645 5639 5635 5632 5629 5626 5623 5620 5617 5615 5613 5611 5607 5603 5599 5596 5592 5588
5693 5691 5689 5687 5685 5683 5681 5679 5676 5674 5671 5670 5669 5666 5664 5661 5659 5656 5654 5651 5647 5644 5641 5640 5636 5629 5624 5621 5617 5614 5612 5609 5606 5604 5602 5599 5597 5592 5587 5584 5581 5577
5683 5682 5680 5677 5675 5673 5671 5668 5666 5663 5661 5659 5658 5656 5654 5651 5648 5646 5643 5639 5637 5633 5629 5628 5626 5620 5613 5609 5606 5601 5599 5597 5594 5592 5590 5587 5585 5581 5576 5573 5570 5565
5672 5670 5669 5667 5664 5662 5660 5658 5655 5652 5650 5648 5646 5645 5643 5640 5637 5635 5632 5629 5625 5622 5618 5615 5614 5610 5602 5598 5595 5590 5585 5583 5580 5578 5577 5574 5571 5568 5565 5560 5556 5552
5661 5659 5657 5655 5653 5651 5649 5646 5644 5641 5638 5636 5634 5632 5631 5629 5626 5623 5621 5619 5614 5610 5606 5602 5599 5597 5591 5585 5581 5577 5571 5567 5565 5563 5561 5559 5556 5553 5550 5547 5542 5538
5649 5647 5645 5643 5642 5640 5638 5635 5632 5629 5627 5625 5622 5619 5617 5616 5613 5609 5607 5607 5603 5598 5594 5589 5584 5582 5578 5572 5567 5563 5557 5552 5550 5548 5544 5542 5540 5538 5535 5532 5529 5524